Welcome to the New NWS' Forecast!
Most changes are behind the scenes, but click here for differences you might notice.
Latest weather observations around

Fort Smith, Fort Smith Regional Airport (KFSM)

Using English Units (Switch to International System of Units)
Date/ Time (CDT) Wind (mph) Vis. (mi) Weather Sky Cond. Temp (°F) Rel. Humidity Wind Chill (°F) Heat Index (°F) Pressure Precip. (in)
Air Dwpt 6 hour Altimeter (inHg) Sea level (inHg) 1 hr 3 hr 6 hr
Max Min
May 24 21:53 W 6 10 Clear CLR 59 47     64%     29.71 29.7      
May 24 20:53 W 6 10 Clear CLR 60 47     62%     29.7 29.69      
May 24 19:53 WNW 9 10 Clear CLR 67 44     44%     29.7 29.69      
May 24 18:53 W 16 10 Clear CLR 69 43     39%     29.69 29.68      
May 24 17:53 WNW 15 10 Partly Cloudy SCT065 SCT080 70 43     38%     29.7 29.69      
May 24 16:53 NW 16 10 Cloudy SCT055 OVC080 71 45     39%   70 29.7 29.69      
May 24 15:53 W 14 10 Cloudy SCT070 OVC080 69 43     39%     29.71 29.7      
May 24 14:53 NNW 14 10 Mostly Cloudy FEW050 SCT065 BKN080 69 43     39%     29.71 29.7      
May 24 13:53 NW 16 10 Mostly Cloudy FEW049 BKN075 68 45     43%     29.72 29.71      
May 24 12:53 NW 16 10 Mostly Cloudy BKN070 67 44     44%     29.73 29.71      
May 24 08:53 NW 11 10 Mostly Clear FEW024 59 47     64%     29.75 29.74      
May 24 07:53 WNW 9 10 Cloudy OVC085 56 47     72%     29.75 29.74      
May 24 06:53 WNW 8 10 Mostly Clear FEW090 54 47     77%     29.74 29.73      
May 24 05:53 NW 9 10 Clear CLR 54 46     74%     29.73 29.72      
May 24 04:53 NW 7 10 Clear CLR 54 47     77%     29.73 29.72      
May 24 03:53 W 9 10 Clear CLR 53 47     80%     29.74 29.73      
May 24 02:53 W 10 10 Clear CLR 56 47     72%     29.75 29.74      
May 24 01:53 WNW 11 10 Clear CLR 58 48     70%     29.77 29.76      
May 24 00:53 W 10 10 Mostly Clear FEW095 59 49     69%     29.77 29.76      
May 23 23:53 WNW 7 10 Mostly Cloudy FEW090 BKN110 62 50     65%     29.79 29.77      
May 23 22:53 WSW 9 10 Mostly Cloudy SCT060 BKN080 62 54     75%     29.8 29.79      
May 23 21:53 W 9 10 Mostly Clear FEW080 62 54     75%     29.79 29.78      
May 23 20:53 W 7 10 Clear CLR 62 53     72%     29.78 29.77      
May 23 19:53 WNW 10 10 Clear CLR 65 52     63%     29.79 29.78      
May 23 18:53 NW 11 10 Mostly Clear FEW080 FEW110 65 52     63%     29.79 29.78      
May 23 17:53 NNW 17 10 Mostly Clear FEW028 68 54     61%     29.78 29.77      
May 23 16:53 NW 15 10 Mostly Clear FEW060 70 52     53%     29.78 29.77      
May 23 15:53 NNW 15 10 Mostly Cloudy BKN047 BKN060 BKN110 72 52     49%   71 29.79 29.78      
May 23 14:53 WNW 11 10 Partly Cloudy SCT049 SCT075 76 53     45%   75 29.78 29.77      
May 23 13:53 WNW 7 10 Mostly Cloudy BKN040 74 53     48%   73 29.8 29.79      
May 23 12:53 NW 5 10 Mostly Clear FEW035 FEW045 72 54     53%   71 29.83 29.81      
May 23 11:53 N 13 10 Partly Cloudy SCT033 73 55     53%   73 29.84 29.83      
May 23 11:24 WNW 14 10 Mostly Cloudy BKN032 69 54     59%     29.85        
May 23 10:53 NNW 9 10 Cloudy SCT021 OVC029 68 56     65%     29.85 29.84      
May 23 09:53 WNW 7 10 Cloudy BKN019 OVC025 66 57     73%     29.85 29.84      
May 23 08:53 W 10 10 Mostly Cloudy BKN015 64 57     78%     29.86 29.84      
May 23 08:48 W 10 10 Mostly Cloudy BKN015 64 57     77%     29.85        
May 23 07:53 W 8 10 Clear CLR 63 57     81%     29.86 29.84      
May 23 06:53 W 7 10 Mostly Cloudy BKN032 BKN110 64 59     84%     29.86 29.85     0
May 23 05:53 W 7 10 Mostly Cloudy BKN037 BKN065 63 59     87%     29.85 29.84      
May 23 04:53 WNW 6 10 Mostly Cloudy BKN040 64 60     87%     29.86 29.85      
May 23 03:53 W 7 10 Partly Cloudy FEW034 SCT120 64 60     87%     29.87 29.85   0  
May 23 02:53 W 9 10 Mostly Cloudy BKN100 64 61     90%     29.87 29.85      
May 23 01:53 SSW 5 10 Clear CLR 65 60     84%     29.87 29.86 0    
May 23 00:53 WSW 7 10 Light Rain FEW075 BKN100 BKN110 66 57     73%     29.89 29.88 0   0
May 22 23:53 SSE 7 10 Light Rain FEW110 66 56     70%     29.89 29.88 0    
May 22 22:53 SSE 5 10 Light Rain FEW050 BKN100 68 55     63%     29.91 29.9 0    
May 22 21:53 E 5 10 Mostly Cloudy SCT065 BKN080 71 51     49%   70 29.92 29.91      
May 22 20:53 E 5 10 Cloudy SCT070 OVC085 72 55     55%   71 29.92 29.9      
May 22 19:53 NE 8 10 Cloudy OVC065 74 53     48%   73 29.92 29.91      
May 22 18:53 E 9 10 Clear CLR 77 53     43%   76 29.92 29.9      
May 22 17:53 ENE 10 10 Partly Cloudy SCT065 78 50     37%   77 29.93 29.91      
May 22 16:53 ENE 7 10 Clear CLR 80 49     34%   79 29.94 29.93      
May 22 15:53 SE 6 10 Clear CLR 80 48     33%   79 29.96 29.95      
May 22 14:53 SSE 8 10 Clear CLR 79 47     32%   78 29.99 29.98      
May 22 13:53 E 5 10 Clear CLR 78 48     35%   77 30.01 30      
May 22 12:53 5 10 Clear CLR 76 47     36%   75 30.05 30.04      
May 22 11:53 ESE 10 10 Clear CLR 75 47     37%   74 30.08 30.07      
May 22 10:53 ESE 11 10 Clear CLR 72 50     46%   71 30.1 30.09      
May 22 09:53 ENE 11 10 Clear CLR 69 52     54%     30.12 30.11      
May 22 08:53 ENE 8 10 Clear CLR 64 55     73%     30.13 30.12      
May 22 06:53 E 3 10 Clear CLR 58 54     87%     30.14 30.13      
May 22 05:53 NNE 3 10 Clear CLR 58 54     87%     30.13 30.12      
May 22 04:53 Calm 10 Clear CLR 60 55     83%     30.14 30.13      
May 22 03:53 Calm 10 Clear CLR 59 54     83%     30.14 30.12      
May 22 02:53 NNE 7 10 Clear CLR 60 54     80%     30.11 30.09      
May 22 01:53 NE 3 10 Clear CLR 61 55     81%     30.13 30.11      
May 22 00:53 Calm 10 Clear CLR 62 54     75%     30.12 30.11      
May 21 23:53 Calm 10 Clear CLR 64 53     67%     30.14 30.13      
May 21 22:53 ENE 3 10 Clear CLR 65 52     63%     30.15 30.14      
May 21 21:53 NNE 3 10 Clear CLR 68 50     53%     30.13 30.13      
May 21 20:53 NNW 5 10 Clear CLR 69 49     49%     30.12 30.11      
May 21 19:53 NNW 6 10 Clear CLR 71 47     42%   70 30.13 30.11      
May 21 18:53 NNW 8 10 Clear CLR 73 44     35%   72 30.11 30.1      
May 21 17:53 NNW 8 10 Clear CLR 76 43     31%   75 30.12 30.11      
May 21 16:53 NNW 8 10 Clear CLR 77 43     30%   76 30.11 30.1      
May 21 15:53 NNE 10 10 Clear CLR 78 43     29%   77 30.11 30.11      
May 21 14:53 NE 7 10 Clear CLR 76 42     30%   75 30.15 30.14      
May 21 13:53 N 7 10 Clear CLR 75 43     32%   74 30.16 30.14      
May 21 12:53 NW 8 10 Clear CLR 72 42     34%   70 30.17 30.16      
May 21 11:53 NNW 10 10 Clear CLR 69 42     38%     30.19 30.18      
May 21 10:53 NW 9 10 Clear CLR 67 46     47%     30.2 30.19      
May 21 09:53 NW 13 10 Clear CLR 64 44     48%     30.18 30.17      
May 21 08:53 NNW 10 10 Clear CLR 63        %     30.18 30.17      
May 21 07:53 NW 7 10 Clear CLR 61 50     67%     30.16 30.16      
May 21 06:53 Calm 10 Clear CLR 55 52     89%     30.15 30.14      
May 21 05:53 Calm 10 Clear CLR 54 50     86%     30.12 30.12      
May 21 04:53 Calm 10 Clear CLR 55 51     86%     30.11 30.1      
May 21 03:53 SW 5 10 Clear CLR 56 51     84%     30.09 30.08      
May 21 02:53 N 6 10 Clear CLR 59 50     72%     30.08 30.07      
May 21 01:53 NNW 8 10 Clear CLR 60 51     72%     30.08 30.07      
May 21 00:53 NNW 9 10 Clear CLR 61 52     72%     30.08 30.07      
May 20 23:53 NW 7 10 Clear CLR 63 55     75%     30.08 30.06      
May 20 22:53 WSW 6 10 Clear CLR 62 59     90%     30.06 30.05      
May 20 21:53 SW 3 10 Clear CLR 63 59     87%     30.03 30.02      
May 20 20:53 Calm 10 Clear CLR 65 59     81%     29.99 29.98      
May 20 19:53 Calm 10 Clear CLR 69 58     68%     29.99 29.97      
May 20 18:53 W 5 10 Cloudy FEW033 SCT042 OVC049 69 58     68%     29.97 29.96      
May 20 18:19 WSW 5 10 Cloudy OVC030 68 59     73%     29.96        
May 20 17:23 W 15 10 Cloudy BKN016 OVC024 68 59     73%     29.94        
May 20 16:53 W 13 10 Cloudy OVC013 67 61     81%     29.94 29.93      
May 20 15:53 WNW 16 10 Cloudy OVC012 70 61     73%     29.93 29.92      
May 20 15:01 W 13 10 Cloudy BKN013 OVC036 71 63     76%   71 29.93        
May 20 13:53 W 10 10 Cloudy SCT020 SCT028 OVC033 73 65     76%   74 29.92 29.91      
May 20 13:11 W 7 10 Mostly Cloudy BKN023 BKN029 BKN035 74 63     69%   74 29.92        
May 20 12:53 WSW 10 10 Mostly Cloudy SCT023 BKN032 76 64     67%   76 29.92 29.91      
May 20 11:53 Calm 10 Mostly Cloudy BKN019 BKN024 72 64     76%   72 29.93 29.91      
May 20 11:37 S 3 10 Mostly Cloudy BKN017 BKN024 72 64     76%   72 29.92        
May 20 10:53 ESE 5 10 Mostly Cloudy SCT010 BKN039 70 63     78%     29.92 29.91      
May 20 10:04 SE 5 10 Mostly Cloudy SCT010 BKN039 68 63     84%     29.91        
May 20 09:56 ESE 6 10 Mostly Cloudy SCT010 BKN039 68 63     84%     29.91        
May 20 09:53 ESE 6 10 Mostly Cloudy BKN008 68 63     84%     29.91 29.89      
May 20 09:24 E 6 10 Mostly Cloudy BKN008 67 62     84%     29.91        
May 20 08:53 E 6 10 Mostly Clear FEW008 67 62     84%     29.9 29.89      
May 20 08:05 ENE 7 10 Mostly Cloudy SCT012 BKN100 66 62     87%     29.88        
May 20 07:53 ENE 7 10 Mostly Cloudy BKN012 BKN095 66 61     84%     29.9 29.88      
May 20 07:19 7 10 Mostly Cloudy BKN010 BKN090 65 61     87%     29.9        
May 20 06:53 ESE 9 10 Partly Cloudy SCT007 65 61     87%     29.87 29.86 0   3
May 20 06:41 ESE 14 10 Partly Cloudy SCT007 SCT110 65 61     87%     29.86   0    
May 20 06:34 ESE 14 10 Light Rain BKN007 BKN035 BKN110 65 61     87%     29.86   0    
May 20 06:16 E 11 7 Thunderstorms and Rain SCT005 BKN080 OVC110 65 62     90%     29.84   0    
May 20 05:53 E 9 4 Thunderstorms and Rain FEW017 BKN045 OVC110 65 62     90%     29.89 29.87 0    
May 20 05:43 SE 5 4 Thunderstorms and Rain SCT007 BKN050 OVC070 65 62     90%     29.92   0    
May 20 05:36 ESE 6 6 Rain and Fog/Mist SCT007 BKN055 OVC100 65 62     90%     29.91   0    
May 20 05:21 SE 11 9 Light Rain SCT007 BKN090 OVC110 65 62     90%     29.88   0    
May 20 04:53 E 10 5 Rain and Fog/Mist FEW006 BKN085 OVC100 65 62     90%     29.88 29.86 0    
May 20 04:08 E 8 4 Thunderstorms and Heavy Rain and Fog/Mist SCT005 BKN040 OVC070 65 62     90%     29.89   0    
May 20 04:01 ESE 10 3 Thunderstorms and Heavy Rain and Fog/Mist SCT005 BKN012 OVC070 65 62     90%     29.9   0    
May 20 03:53 6 2 Thunderstorms and Heavy Rain and Fog/Mist BKN004 OVC034 65 62     90%     29.89 29.88 0 2  
May 20 03:40 E 8 1.75 Thunderstorms and Heavy Rain and Fog/Mist BKN006 BKN030 OVC044 65 62     90%     29.88   0    
May 20 03:33 ESE 3 1.75 Thunderstorms and Heavy Rain and Fog/Mist SCT006 BKN037 OVC070 65 62     90%     29.9   0    
May 20 03:00 E 6 3 Thunderstorms and Heavy Rain and Fog/Mist FEW004 FEW023 OVC035 65 62     90%     29.88   0    
May 20 02:53 E 5 2 Thunderstorms and Heavy Rain and Fog/Mist FEW004 BKN025 OVC039 65 62     90%     29.87 29.86 1    
May 20 02:43 ESE 5 2 Thunderstorms and Heavy Rain and Fog/Mist BKN025 BKN030 OVC039 65 62     90%     29.88   1    
May 20 02:27 NE 8 1.75 Heavy Rain and Fog/Mist FEW007 BKN029 OVC055 65 62     90%     29.86   0    
May 20 02:21 NNE 3 4 Heavy Rain and Fog/Mist FEW007 BKN029 OVC055 65 62     90%     29.89   0    
May 20 01:53 NE 7 1.25 Thunderstorms and Heavy Rain and Fog/Mist SCT007 BKN016 OVC050 65 62     90%     29.87 29.85 1    
May 20 01:45 NNE 3 2.5 Thunderstorms and Heavy Rain and Fog/Mist SCT007 BKN016 OVC050 65 62     90%     29.88   1    
May 20 01:35 E 7 7 Thunderstorms and Rain FEW007 SCT029 OVC050 65 62     90%     29.88   1    
May 20 01:30 NE 9 3 Thunderstorms and Rain and Fog/Mist BKN027 OVC050 65 62     90%     29.87   1    
May 20 01:19 N 6 1.75 Thunderstorms and Heavy Rain and Fog/Mist FEW009 BKN023 OVC033 65 62     90%     29.88   0    
May 20 01:12 NNE 9 3 Thunderstorms and Heavy Rain and Fog/Mist FEW007 SCT010 OVC027 65 62     90%     29.88   0    
May 20 01:04 NNE 13 1.25 Thunderstorms and Heavy Rain and Fog/Mist SCT007 SCT010 OVC016 65 62     90%     29.85   0    
May 20 00:53 ENE 10 1.25 Thunderstorms and Heavy Rain and Fog/Mist OVC007 65 62     90%     29.87 29.86 0   0
May 20 00:41 NE 10 1.75 Thunderstorms and Heavy Rain and Fog/Mist BKN007 OVC039 65 62     90%     29.87   0    
May 20 00:37 7 3 Thunderstorms and Rain and Fog/Mist SCT009 BKN012 OVC037 66 62     87%     29.87   0    
May 20 00:23 N 15 7 Thunderstorms and Rain SCT027 OVC040 66 62     87%     29.84   0    
May 20 00:13 N 15 9 Thunderstorms and Rain BKN025 BKN031 OVC035 67 61     81%     29.87   0    
May 20 00:01   10 Cloudy BKN025 BKN033 OVC060 71 60     68%   71 29.89        
May 19 23:53   10 Cloudy SCT025 BKN047 OVC070 72 60     66%   72 29.86 29.85      
May 19 23:05 E 10 10 Partly Cloudy FEW040 FEW095 SCT110 78 69     74%   79 29.81        
May 19 22:53 E 7 10 Mostly Cloudy BKN100 78 69     74%   79 29.83 29.81      
May 19 21:53 ESE 8 10 Mostly Clear FEW110 79 70     74%   82 29.82 29.8      
May 19 20:53 E 5 10 Clear   78 70     76%   79 29.8 29.79      
May 19 19:53 E 7 10 Partly Cloudy FEW042 SCT110 80 72     76%   84 29.78 29.77      
May 19 18:53 ENE 7 10 Clear CLR 82 72     72%   87 29.77 29.76     0
May 19 17:53 E 6 10 Mostly Clear FEW045 83 69     63%   87 29.79 29.78      
May 19 16:53 6 10 Clear CLR 83 68     61%   86 29.82 29.8      
May 19 15:53 ESE 7 10 Mostly Clear FEW032 FEW039 83 69     63%   87 29.84 29.83   0  
May 19 15:33 S 6 10 Partly Cloudy SCT033 SCT040 82 68     63%   85 29.85        
May 19 14:53 SSE 7 10 Mostly Clear FEW110 83 69     63%   87 29.86 29.84 0    
May 19 13:53 5 10 Light Rain BKN047 OVC060 79 68     69%   80 29.89 29.88 0    
May 19 12:53 ENE 8 10 Cloudy SCT024 OVC044 79 68     69%   80 29.89 29.88      
May 19 12:35 E 8 10 Cloudy SCT024 OVC044 78 68     71%   79 29.89        
May 19 12:00 E 7 10 Cloudy BKN021 OVC044 78 67     69%   79 29.89        
May 19 11:53 5 10 Cloudy OVC046 77 67     71%   78 29.89 29.88      
May 19 10:53 E 10 10 Cloudy OVC045 73 65     76%   74 29.91 29.89      
May 19 09:53 E 9 10 Cloudy OVC045 70 63     78%     29.92 29.9      
May 19 08:53 ENE 9 10 Cloudy BKN041 OVC085 68 62     81%     29.93 29.92      
May 19 07:53 NE 9 10 Mostly Cloudy FEW028 SCT034 BKN080 66 61     84%     29.93 29.91      
May 19 06:53 E 10 10 Mostly Clear FEW095 64 60     87%     29.88 29.86     0
May 19 05:53 ENE 7 10 Mostly Cloudy BKN075 63 60     90%     29.88 29.87      
May 19 04:53 E 5 10 Clear CLR 63 60     90%     29.87 29.85      
May 19 04:01 E 9 10 Clear   63 60     90%     29.86        
May 19 03:53 E 6 10 Clear   63 60     90%     29.85 29.83   0  
May 19 02:53 E 9 10 Mostly Clear FEW003 63 60     90%     29.84   0    
May 19 02:42 E 11 10 Partly Cloudy FEW003 SCT048 SCT090 63 61     93%     29.85   0    
May 19 01:53 S 6 3 Thunderstorms and Rain and Fog/Mist FEW011 BKN046 OVC090 63 60     90%     29.98 29.97 0    
May 19 01:46 S 6 2 Thunderstorms and Heavy Rain and Fog/Mist FEW011 BKN042 OVC090 64 60     87%     29.98   0    
May 19 00:53 Calm 6 Thunderstorms and Rain and Fog/Mist BKN049 OVC100 64 60     87%     29.95 29.93 1   1
May 19 00:29 W 16 2.5 Thunderstorms and Heavy Rain and Fog/Mist FEW006 OVC031 63 60     90%     29.93   1    
May 19 00:19 W 11 1 Thunderstorms and Heavy Rain and Fog/Mist FEW006 BKN016 OVC034 63 60     90%     29.92   1    
May 19 00:14 W 13 0.75 Thunderstorms and Heavy Rain and Fog/Mist FEW009 BKN014 OVC045 63 60     90%     29.93   0    
May 19 00:09 WSW 15 1.5 Thunderstorms and Heavy Rain and Fog/Mist FEW012 BKN020 OVC048 64 60     87%     29.95   0    
May 19 00:01   2.5 Thunderstorms and Heavy Rain FEW020 BKN044 OVC055 67 59     76%     29.94   0    
May 18 23:53   10 Cloudy SCT039 OVC050 79 68     69%   80 29.89 29.87      
May 18 22:53 SE 3 10 Partly Cloudy SCT100 80 67     64%   82 29.84 29.83      
May 18 21:53 SSE 3 10 Clear CLR 80 67     64%   82 29.81 29.79      
May 18 20:53 SSE 9 10 Mostly Clear FEW046 82 67     60%   85 29.78 29.76      
May 18 19:53 ESE 7 10 Clear CLR 83 66     57%   85 29.75 29.73      
May 18 18:53 SE 7 10 Clear CLR 85 65     51%   87 29.74 29.72      
May 18 17:53 SSE 13 10 Clear CLR 88 65     47%   90 29.76 29.74      
May 18 16:53 SE 11 10 Clear CLR 88 65     47%   90 29.77 29.75      
May 18 15:53 SSW 9 10 Mostly Clear FEW050 89 64     44%   90 29.78 29.76      
May 18 14:53 S 8 10 Mostly Cloudy BKN049 88 65     47%   90 29.81 29.79      
May 18 13:53 ESE 8 10 Partly Cloudy SCT047 88 65     47%   90 29.82 29.8      
May 18 12:53 SSE 8 10 Mostly Clear FEW042 FEW050 87 65     48%   89 29.83 29.81      
May 18 11:53 7 10 Mostly Cloudy BKN039 BKN055 86 67     53%   89 29.85 29.83      
May 18 10:53 SSW 6 10 Mostly Cloudy BKN036 BKN044 84 66     55%   86 29.84 29.82      
May 18 10:22 S 11 10 Cloudy BKN030 BKN036 OVC042 82 66     58%   84 29.84        
May 18 09:53 ESE 8 10 Cloudy BKN029 OVC036 81 67     62%   83 29.85 29.83      
May 18 08:53 ENE 5 10 Mostly Cloudy BKN032 77 67     71%   78 29.84 29.83      
May 18 07:53 ENE 5 8 Mostly Cloudy BKN031 72 67     84%   73 29.83 29.81      
May 18 06:53 ENE 3 6 Fog/Mist FEW030 68 65     90%     29.82 29.8      
May 18 05:53 Calm 8 Clear CLR 68 64     87%     29.8 29.79      
May 18 04:53 ENE 3 9 Mostly Cloudy BKN031 69 65     87%     29.8 29.78      
May 18 03:53 NE 5 9 Clear CLR 68 64     87%     29.79 29.78      
May 18 02:53 N 5 10 Clear CLR 71 64     79%   72 29.79 29.77      
May 18 01:53 S 5 10 Clear CLR 73 65     76%   74 29.78 29.77      
May 18 00:53 ESE 6 10 Clear CLR 73 64     73%   73 29.78 29.77      
May 17 23:53 S 5 10 Clear   74 64     71%   74 29.77 29.75      
May 17 22:53 S 6 10 Clear CLR 76 63     64%   76 29.77 29.76      
May 17 21:53 S 6 10 Clear CLR 76 62     62%   76 29.75 29.74      
May 17 20:53 SSE 5 10 Clear CLR 78 60     54%   78 29.73 29.71      
May 17 19:53 S 8 10 Clear CLR 80 60     51%   81 29.71 29.69      
May 17 18:53 SSW 14 10 Clear CLR 84 60     44%   84 29.69 29.68      
May 17 17:53 S 18 10 Mostly Cloudy BKN065 86 57     37%   85 29.69 29.67      
May 17 16:53 SSW 15 10 Mostly Clear FEW060 86 58     39%   85 29.69 29.67      
May 17 15:53 S 18 10 Partly Cloudy SCT060 85 59     42%   85 29.69 29.67      
May 17 14:53 SSW 21 10 Clear and Windy CLR 86 58     39%   85 29.69 29.67      
May 17 13:53 S 15 10 Mostly Clear FEW100 84 59     43%   84 29.68 29.66      
May 17 12:53 SSW 20 10 Partly Cloudy and Windy FEW042 SCT050 83 61     48%   83 29.7 29.68     0
May 17 11:53 S 16 10 Mostly Cloudy SCT038 BKN044 BKN110 79 62     56%   79 29.7 29.68      
May 17 10:53 S 13 10 Cloudy SCT032 OVC120 77 63     62%   77 29.71 29.69      
May 17 10:09 S 11 10 Cloudy OVC031 74 64     71%   74 29.72        
May 17 09:53 7 10 Cloudy OVC029 73 64     73%   73 29.72 29.7   0  
May 17 09:27 Calm 10 Cloudy FEW014 BKN020 OVC025 70 64     81%     29.72        
May 17 09:04 3 10 Thunderstorms BKN015 BKN022 BKN095 70 62     76%     29.71        
May 17 08:53   10 Thunderstorms SCT015 SCT041 BKN090 69 63     81%     29.67 29.65 0    
May 17 07:53 ESE 11 10 Light Rain FEW038 BKN100 BKN120 67 63     87%     29.69 29.68 0    
May 17 07:41 ESE 8 4 Light Rain FEW048 OVC100 68 63     84%     29.73   0    
May 17 06:53 S 5 9 Light Rain FEW033 BKN070 OVC080 68 62     81%     29.77   0   0
May 17 06:30 SW 18 6 Rain FEW030 OVC039 70 60     71%     29.78   0    
May 17 05:53 SSW 7 10 Cloudy BKN048 OVC110 73 57     57%   73 29.75 29.72      
May 17 04:53 S 8 10 Partly Cloudy SCT085 72 57     59%   72 29.74 29.72      
May 17 03:53 SW 8 10 Partly Cloudy SCT065 74 56     53%   74 29.75        
May 17 02:53 S 10 10 Clear CLR 75 56     52%   75 29.66 29.64      
May 17 01:53 S 11 10 Clear CLR 76 57     52%   76 29.67 29.65      
May 17 00:53 SE 5 10 Mostly Clear FEW050 75 59     57%   75 29.69 29.67      
May 16 23:53 SSE 6 10 Partly Cloudy SCT050 75 59     57%   75 29.72 29.71      
May 16 22:53 E 3 10 Cloudy OVC050 74 60     62%   74 29.74 29.73      
May 16 21:53 SE 6 10 Clear CLR 77 58     52%   77 29.74 29.72      
May 16 20:53 SSE 10 10 Clear CLR 78 58     50%   78 29.73 29.71      
May 16 19:53 SSE 7 10 Clear CLR 80 57     45%   80 29.74 29.72      
May 16 18:53 SSE 11 10 Clear CLR 83 55     38%   82 29.74 29.72      
May 16 17:53 SSE 14 10 Clear CLR 85 53     34%   83 29.76 29.75      
May 16 16:53 S 13 10 Clear CLR 85 53     34%   83 29.78 29.77      
May 16 15:53 S 11 10 Clear CLR 86 54     33%   84 29.8 29.78      
May 16 14:53 S 14 10 Clear CLR 85 54     35%   83 29.83 29.81      
May 16 13:53 SSW 9 10 Clear CLR 84 54     36%   83 29.85 29.83      
May 16 12:53 SSW 13 10 Clear CLR 83 53     36%   82 29.87 29.85      
May 16 11:53 SSW 9 10 Clear CLR 81 52     37%   80 29.89 29.88      
May 16 10:53 SW 10 10 Clear CLR 80 49     34%   79 29.9 29.88      
May 16 09:53 S 7 10 Clear CLR 77 53     43%   76 29.9 29.89      
May 16 08:53 SE 7 10 Clear CLR 74 59     60%   74 29.9 29.88      
May 16 07:53 E 3 10 Clear CLR 69 59     70%     29.9 29.88      
May 16 06:53 ENE 3 10 Clear CLR 64 58     81%     29.89 29.88      
May 16 05:53 Calm 10 Clear CLR 64 58     81%     29.87 29.86      
May 16 04:53 ENE 5 10 Clear CLR 64 60     87%     29.87 29.85      
May 16 03:53 ENE 5 10 Clear CLR 64 60     87%     29.87 29.85      
May 16 02:53 ENE 3 10 Clear CLR 65 60     84%     29.86 29.85      
May 16 01:53 E 3 10 Clear CLR 67 59     76%     29.87 29.85      
May 16 00:53 E 5 10 Clear CLR 67 59     76%     29.87 29.86      
May 15 23:53 NE 5 10 Clear CLR 68 59     73%     29.88 29.87      
May 15 22:53 E 3 10 Clear CLR 72 58     61%   72 29.89 29.87      
May 15 21:53 S 6 10 Clear CLR 75 58     55%   75 29.88 29.86      
May 15 20:53 S 6 10 Clear CLR 77 60     56%   77 29.87 29.86      
May 15 19:53 SSE 7 10 Partly Cloudy SCT055 81 59     47%   81 29.87 29.85      
May 15 18:53 SSE 9 10 Clear   84 60     44%   84 29.86 29.85      
May 15 17:55 SSE 9 10 Partly Cloudy SCT055 85 61     45%   85 29.87        
May 15 17:53 SE 10 10 Mostly Cloudy BKN055 85 60     43%   85 29.87 29.85      
May 15 16:53 SSE 7 10 Clear CLR 86 60     42%   86 29.87 29.85      
May 15 15:53 SE 9 10 Partly Cloudy SCT055 86 59     40%   85 29.89 29.87      
May 15 14:53 3 10 Clear CLR 86 59     40%   85 29.9 29.89      
May 15 13:53 ESE 10 10 Clear CLR 86 58     39%   85 29.92 29.91      
May 15 12:53 ENE 7 10 Mostly Clear FEW046 84 61     46%   84 29.94 29.92      
May 15 11:53 Calm 10 Clear CLR 81 62     53%   82 29.96 29.94      
May 15 10:53 6 10 Clear CLR 77 60     56%   77 29.97 29.96      
May 15 09:53 ENE 6 10 Clear CLR 73 60     64%   73 29.98 29.96      
May 15 08:53 ENE 5 10 Clear CLR 69 58     68%     29.98 29.97      
May 15 07:53 ENE 7 10 Clear CLR 64 57     78%     29.96 29.95      
May 15 06:53 NE 5 10 Clear CLR 61 56     83%     29.94 29.93      
May 15 05:53 ENE 3 10 Clear CLR 60 56     86%     29.92 29.91      
May 15 04:53 ENE 5 10 Clear CLR 61 56     83%     29.93 29.92      
May 15 03:53 ENE 6 10 Clear CLR 61 57     87%     29.93 29.92      
May 15 02:53 ENE 5 10 Clear CLR 62 58     86%     29.93 29.92      
May 15 01:53 NE 3 10 Clear CLR 62 58     86%     29.93 29.91      
May 14 23:53 Calm 10 Clear CLR 65 57     76%     29.93 29.92      
May 14 22:53 Calm 10 Clear CLR 68 57     68%     29.91 29.9      
May 14 21:53 ESE 3 10 Clear CLR 70 58     66%     29.9 29.88      
May 14 19:53 SE 5 10 Clear CLR 79 55     44%   79 29.88 29.87      
May 14 18:53 Calm 10 Clear CLR 82 53     37%   81 29.89 29.88      
May 14 17:53 Calm 10 Clear CLR 83 53     36%   82 29.9 29.88      
May 14 16:53 6 10 Clear CLR 82 51     34%   81 29.9 29.89      
May 14 15:53 3 10 Clear CLR 83 50     32%   81 29.91 29.9      
May 14 14:53 S 6 10 Clear CLR 80 50     35%   79 29.94 29.93      
May 14 13:53 E 3 10 Clear CLR 80 50     35%   79 29.96 29.95      
May 14 12:53 5 10 Clear CLR 79 50     36%   78 29.98 29.96      
May 14 11:53 5 10 Clear CLR 77 50     39%   76 30 29.98      
May 14 10:53 3 10 Clear CLR 74 50     43%   73 30.01 30      
May 14 09:53 E 6 10 Clear CLR 70 54     57%     30.01 30      
May 14 08:53 ENE 5 10 Clear CLR 64 54     70%     30.02 30.01      
May 14 07:53 ENE 6 10 Clear CLR 60 54     80%     30 29.99      
May 14 06:53 Calm 10 Clear CLR 56 53     90%     29.99 29.98      
May 14 05:53 ENE 5 10 Clear CLR 56 52     87%     29.98 29.97      
May 14 04:53 ENE 3 10 Clear CLR 57 53     87%     29.96 29.95      
May 14 03:53 ENE 5 10 Clear CLR 57 53     87%     29.95 29.93      
May 14 02:53 Calm 10 Clear CLR 59 54     83%     29.93 29.92      
May 14 01:53 Calm 10 Clear CLR 60 52     75%     29.92 29.91      
May 14 00:53 Calm 10 Clear CLR 62 51     67%     29.93 29.92      
May 13 23:53 Calm 10 Clear CLR 65 51     61%     29.93 29.92      
May 13 22:53 Calm 10 Clear CLR 66 52     61%     29.93 29.91      
May 13 21:53 SE 3 10 Clear CLR 64 56     75%     29.92 29.91      
May 13 20:53 Calm 10 Clear CLR 66 57     73%     29.91 29.9      
May 13 19:53 ESE 3 10 Clear CLR 75 49     40%   74 29.91 29.89      
May 13 18:53 SSE 5 10 Clear CLR 77 48     36%   76 29.9 29.89